sat.trackr.live / text

‹ back to catalog

STARLINK-31992

NORAD 60023 · 2024-111H

PAYLOAD ACTIVE UNKNOWN

§ Identity

Operator
Country
US
Launch date
2024-06-08
Launch site
AFETR
Launch vehicle
Mass (kg)
RCS (m²)

Purposes: comms

External: N2YO · Heavens-Above · Gunter

§ Orbital elements

Epoch: 2026-09-21T12:09:21.086784Z

Period
93.85 min
Inclination
53.1589°
Eccentricity
0.0001041
Mean motion
15.34399057 rev/d
Perigee alt
462.0 km
Apogee alt
463.4 km
Semi-major
6,840.8 km
B*
-9.6387e-5
RAAN
244.6834°
Arg perigee
77.5401°
Mean anomaly
282.5718°
Rev number
12,904

§ Raw data

STARLINK-319921 60023U 24111H   26264.50649406 -.00003631  00000+0 -96387-4 0  99952 60023  53.1589 244.6834 0001041  77.5401 282.5718 15.34399057129040

JSON: /api/v1/satellites/60023 · /tle

For live sub-satellite position, see the globe view (requires WebGL).

§ Visibility from observer

Set your observer location to see the next 7 days of passes ≥ 10°. The values pass through the URL so the page stays shareable.

No JS? Fill the form by hand. The geolocation button needs JavaScript.